QPF
0.03 0.03 0.03 0.03 0.03 0.03 0.03 0.03 0.03 0.03 0.04 0.03 0.03 0.02 0.03 0.03 0.04 0.06 0.05 0.05 0.05 0.05 0.05 0.06 0.06 0.08 0.08 0.07 0.05 0.05 0.06 0.06 0.05 0.04 0.03 0.04 0.05 0.04 0.04 0.04 0.03 0.03 0.02
0.02 0.04 0.05 0.05 0.04 0.04 0.03 0.04 0.04 0.04 0.04 0.03 0.02 0.02 0.02 0.03 0.05 0.06 0.05 0.05 0.05 0.06 0.07 0.08 0.07 0.07 0.07 0.07 0.06 0.04 0.05 0.05 0.04 0.05 0.05 0.06 0.06 0.06 0.05 0.05 0.03 0.02 0.01
0.04 0.04 0.06 0.06 0.05 0.04 0.04 0.05 0.04 0.03 0.03 0.02 0.02 0.02 0.02 0.03 0.04 0.06 0.06 0.07 0.07 0.07 0.09 0.10 0.09 0.08 0.07 0.06 0.05 0.04 0.04 0.04 0.05 0.05 0.05 0.06 0.05 0.05 0.04 0.03 0.02 0.02 0.01
0.04 0.05 0.06 0.07 0.06 0.05 0.06 0.05 0.04 0.03 0.02 0.02 0.02 0.02 0.02 0.02 0.03 0.05 0.07 0.07 0.07 0.08 0.09 0.10 0.10 0.10 0.09 0.07 0.05 0.05 0.05 0.05 0.06 0.06 0.06 0.06 0.06 0.05 0.04 0.03 0.02 0.02 0.01
0.05 0.05 0.05 0.06 0.07 0.07 0.06 0.06 0.05 0.05 0.04 0.03 0.03 0.03 0.03 0.02 0.03 0.04 0.05 0.07 0.08 0.08 0.10 0.10 0.08 0.08 0.08 0.07 0.05 0.04 0.05 0.05 0.05 0.07 0.08 0.07 0.06 0.06 0.04 0.04 0.03 0.03 0.02
0.07 0.06 0.07 0.07 0.08 0.08 0.07 0.07 0.07 0.06 0.06 0.05 0.05 0.04 0.04 0.03 0.03 0.04 0.05 0.08 0.08 0.08 0.08 0.07 0.05 0.05 0.05 0.06 0.06 0.06 0.06 0.05 0.05 0.06 0.06 0.06 0.05 0.05 0.05 0.05 0.04 0.04 0.03
0.04 0.04 0.06 0.07 0.09 0.09 0.08 0.08 0.09 0.09 0.07 0.06 0.06 0.05 0.05 0.04 0.05 0.03 0.04 0.05 0.06 0.05 0.05 0.05 0.05 0.06 0.07 0.07 0.07 0.07 0.06 0.04 0.03 0.04 0.05 0.04 0.04 0.04 0.05 0.05 0.05 0.05 0.05
0.04 0.04 0.04 0.05 0.07 0.08 0.10 0.10 0.09 0.10 0.11 0.09 0.06 0.04 0.04 0.04 0.05 0.04 0.04 0.04 0.05 0.05 0.04 0.03 0.03 0.04 0.05 0.05 0.05 0.04 0.03 0.02 0.02 0.03 0.03 0.03 0.03 0.04 0.05 0.05 0.05 0.06 0.05
0.06 0.05 0.03 0.04 0.04 0.05 0.06 0.09 0.10 0.10 0.09 0.09 0.09 0.06 0.04 0.03 0.03 0.03 0.03 0.03 0.04 0.04 0.03 0.03 0.03 0.03 0.03 0.03 0.04 0.03 0.02 0.02 0.02 0.02 0.01 0.02 0.02 0.03 0.03 0.04 0.05 0.06 0.05
0.06 0.04 0.02 0.02 0.02 0.02 0.03 0.05 0.06 0.08 0.10 0.09 0.09 0.08 0.05 0.03 0.02 0.02 0.02 0.02 0.03 0.03 0.04 0.03 0.04 0.03 0.03 0.02 0.03 0.04 0.03 0.02 0.03 0.03 0.02 0.01 0.01 0.02 0.02 0.03 0.04 0.05 0.05
0.01 0.01 0.01 0.02 0.02 0.02 0.03 0.03 0.03 0.04 0.05 0.07 0.07 0.07 0.06 0.04 0.03 0.02 0.02 0.02 0.03 0.02 0.03 0.03 0.03 0.03 0.03 0.02 0.01 0.02 0.02 0.01 0.02 0.03 0.03 0.02 0.02 0.02 0.02 0.02 0.02 0.03 0.04
0.01 0.01 0.01 0.02 0.01 0.01 0.03 0.03 0.03 0.03 0.03 0.04 0.05 0.05 0.05 0.04 0.04 0.03 0.02 0.03 0.03 0.03 0.03 0.03 0.03 0.03 0.03 0.02 0.02 0.01 0.01 0.02 0.02 0.03 0.03 0.02 0.03 0.03 0.03 0.03 0.03 0.04 0.04
0.02 0.01 0.01 0.02 0.02 0.03 0.03 0.03 0.02 0.03 0.03 0.02 0.03 0.04 0.03 0.03 0.03 0.03 0.02 0.02 0.03 0.03 0.03 0.03 0.03 0.03 0.03 0.02 0.02 0.02 0.01 0.01 0.02 0.02 0.02 0.02 0.03 0.04 0.04 0.05 0.05 0.05 0.05
0.02 0.02 0.02 0.03 0.03 0.03 0.04 0.03 0.02 0.02 0.02 0.02 0.02 0.03 0.03 0.03 0.02 0.02 0.02 0.02 0.02 0.03 0.04 0.04 0.04 0.04 0.04 0.04 0.03 0.03 0.02 0.02 0.02 0.02 0.01 0.02 0.02 0.03 0.04 0.04 0.05 0.05 0.05
0.02 0.02 0.03 0.04 0.04 0.04 0.05 0.05 0.04 0.04 0.03 0.02 0.02 0.02 0.02 0.02 0.01 0.01 0.01 0.01 0.01 0.02 0.03 0.04 0.05 0.05 0.05 0.04 0.03 0.02 0.02 0.02 0.01 0.01 0.02 0.02 0.03 0.03 0.04 0.04 0.05 0.05 0.04
0.03 0.03 0.04 0.04 0.04 0.05 0.06 0.07 0.06 0.06 0.05 0.04 0.03 0.02 0.02 0.02 0.01 0.01 0.01 0.01 0.01 0.02 0.02 0.03 0.04 0.04 0.04 0.04 0.03 0.03 0.04 0.04 0.04 0.03 0.03 0.03 0.04 0.05 0.05 0.05 0.05 0.06 0.04
0.04 0.05 0.04 0.05 0.04 0.04 0.04 0.05 0.06 0.05 0.05 0.05 0.04 0.04 0.03 0.03 0.02 0.02 0.02 0.02 0.02 0.02 0.02 0.02 0.02 0.03 0.04 0.04 0.04 0.04 0.03 0.03 0.03 0.03 0.04 0.04 0.04 0.04 0.04 0.03 0.04 0.04 0.04
0.03 0.04 0.04 0.04 0.04 0.04 0.04 0.04 0.04 0.04 0.04 0.04 0.05 0.05 0.04 0.03 0.02 0.02 0.02 0.02 0.03 0.03 0.02 0.01 0.02 0.02 0.03 0.04 0.04 0.04 0.03 0.03 0.03 0.03 0.03 0.02 0.02 0.03 0.03 0.03 0.03 0.04 0.04
0.02 0.03 0.03 0.03 0.04 0.04 0.04 0.04 0.05 0.05 0.05 0.05 0.05 0.04 0.04 0.04 0.03 0.03 0.02 0.02 0.03 0.04 0.03 0.02 0.02 0.03 0.03 0.03 0.03 0.03 0.03 0.03 0.04 0.05 0.05 0.04 0.03 0.03 0.03 0.04 0.04 0.04 0.04
0.02 0.02 0.03 0.04 0.04 0.04 0.05 0.05 0.06 0.07 0.07 0.07 0.07 0.06 0.05 0.04 0.03 0.03 0.03 0.03 0.03 0.04 0.04 0.04 0.03 0.03 0.04 0.04 0.03 0.03 0.04 0.03 0.03 0.04 0.04 0.04 0.04 0.03 0.04 0.04 0.04 0.04 0.05
0.02 0.02 0.03 0.04 0.05 0.06 0.08 0.09 0.09 0.11 0.11 0.10 0.10 0.09 0.07 0.05 0.03 0.03 0.04 0.04 0.04 0.04 0.04 0.04 0.04 0.03 0.03 0.03 0.04 0.04 0.05 0.04 0.04 0.04 0.04 0.04 0.05 0.05 0.05 0.04 0.04 0.04 0.04
0.01 0.02 0.02 0.03 0.04 0.04 0.05 0.06 0.06 0.06 0.09 0.08 0.06 0.06 0.05 0.03 0.03 0.03 0.04 0.05 0.06 0.07 0.06 0.06 0.06 0.05 0.04 0.05 0.05 0.06 0.06 0.06 0.06 0.05 0.05 0.05 0.05 0.06 0.06 0.05 0.05 0.04 0.03
0.02 0.02 0.02 0.02 0.02 0.03 0.03 0.04 0.05 0.05 0.04 0.05 0.05 0.05 0.05 0.05 0.04 0.04 0.04 0.04 0.05 0.06 0.06 0.06 0.06 0.04 0.03 0.04 0.04 0.05 0.05 0.05 0.06 0.05 0.05 0.05 0.06 0.06 0.06 0.06 0.05 0.05 0.04
0.02 0.02 0.02 0.02 0.02 0.02 0.02 0.03 0.03 0.04 0.05 0.05 0.05 0.05 0.06 0.05 0.04 0.03 0.03 0.02 0.03 0.03 0.03 0.03 0.03 0.03 0.02 0.03 0.03 0.03 0.04 0.04 0.05 0.04 0.05 0.06 0.06 0.06 0.07 0.06 0.05 0.06 0.05
0.05 0.04 0.03 0.03 0.02 0.03 0.03 0.03 0.03 0.03 0.04 0.04 0.03 0.03 0.03 0.03 0.03 0.02 0.02 0.02 0.02 0.02 0.02 0.03 0.03 0.03 0.04 0.04 0.03 0.03 0.03 0.04 0.04 0.04 0.05 0.06 0.06 0.06 0.06 0.05 0.04 0.05 0.04
0.05 0.05 0.05 0.05 0.04 0.04 0.04 0.05 0.04 0.04 0.05 0.04 0.03 0.03 0.02 0.02 0.02 0.02 0.02 0.02 0.02 0.02 0.02 0.03 0.03 0.03 0.04 0.04 0.03 0.02 0.02 0.02 0.02 0.03 0.03 0.04 0.05 0.05 0.04 0.03 0.03 0.02 0.03
MSLP
1014.93 1014.74 1014.51 1014.24 1013.95 1013.64 1013.32 1012.99 1012.66 1012.31 1011.94 1011.54 1011.10 1010.61 1010.09 1009.54 1008.99 1008.48 1008.06 1007.75 1007.60 1007.62 1007.82 1008.20 1008.72 1009.35 1010.05 1010.76 1011.44 1012.06 1012.57 1012.96 1013.24 1013.43 1013.54 1013.61 1013.69 1013.82 1014.02 1014.30 1014.67 1015.11 1015.58
1014.84 1014.60 1014.34 1014.06 1013.77 1013.47 1013.18 1012.89 1012.60 1012.29 1011.96 1011.58 1011.15 1010.67 1010.13 1009.57 1009.00 1008.47 1008.01 1007.66 1007.47 1007.46 1007.62 1007.96 1008.45 1009.05 1009.73 1010.42 1011.09 1011.69 1012.19 1012.59 1012.88 1013.07 1013.21 1013.32 1013.45 1013.63 1013.89 1014.23 1014.66 1015.15 1015.67
1014.72 1014.44 1014.14 1013.82 1013.51 1013.21 1012.93 1012.66 1012.40 1012.14 1011.85 1011.51 1011.12 1010.67 1010.15 1009.60 1009.03 1008.49 1008.01 1007.64 1007.41 1007.35 1007.47 1007.76 1008.21 1008.77 1009.41 1010.08 1010.72 1011.31 1011.82 1012.22 1012.52 1012.75 1012.92 1013.07 1013.25 1013.48 1013.79 1014.18 1014.65 1015.18 1015.72
1014.58 1014.25 1013.89 1013.52 1013.17 1012.85 1012.56 1012.30 1012.06 1011.84 1011.59 1011.31 1010.98 1010.58 1010.11 1009.59 1009.05 1008.51 1008.03 1007.64 1007.37 1007.27 1007.33 1007.56 1007.95 1008.45 1009.04 1009.67 1010.29 1010.87 1011.37 1011.78 1012.11 1012.36 1012.57 1012.77 1012.99 1013.27 1013.62 1014.04 1014.53 1015.07 1015.62
1014.41 1014.02 1013.60 1013.18 1012.77 1012.40 1012.08 1011.81 1011.59 1011.39 1011.19 1010.96 1010.69 1010.36 1009.96 1009.50 1009.00 1008.49 1008.01 1007.61 1007.32 1007.16 1007.17 1007.33 1007.64 1008.07 1008.60 1009.17 1009.75 1010.30 1010.79 1011.21 1011.56 1011.84 1012.09 1012.33 1012.59 1012.90 1013.28 1013.72 1014.22 1014.75 1015.29
1014.24 1013.80 1013.32 1012.82 1012.35 1011.92 1011.55 1011.24 1011.00 1010.81 1010.64 1010.46 1010.25 1009.98 1009.65 1009.26 1008.82 1008.36 1007.91 1007.51 1007.20 1007.00 1006.95 1007.04 1007.27 1007.62 1008.07 1008.57 1009.09 1009.60 1010.07 1010.49 1010.85 1011.16 1011.44 1011.71 1012.00 1012.34 1012.73 1013.18 1013.68 1014.20 1014.73
1014.11 1013.62 1013.07 1012.50 1011.95 1011.44 1011.00 1010.64 1010.36 1010.15 1009.98 1009.82 1009.65 1009.45 1009.19 1008.87 1008.50 1008.10 1007.69 1007.31 1007.00 1006.78 1006.67 1006.70 1006.85 1007.11 1007.47 1007.89 1008.35 1008.80 1009.24 1009.64 1010.00 1010.32 1010.63 1010.93 1011.25 1011.61 1012.01 1012.47 1012.96 1013.47 1013.98
1014.06 1013.52 1012.92 1012.29 1011.66 1011.06 1010.54 1010.10 1009.75 1009.48 1009.28 1009.12 1008.96 1008.79 1008.58 1008.33 1008.03 1007.69 1007.34 1007.00 1006.71 1006.49 1006.36 1006.33 1006.41 1006.60 1006.87 1007.21 1007.59 1007.98 1008.37 1008.74 1009.09 1009.42 1009.74 1010.07 1010.42 1010.80 1011.22 1011.68 1012.16 1012.67 1013.16
1014.13 1013.57 1012.92 1012.23 1011.53 1010.85 1010.23 1009.70 1009.25 1008.90 1008.63 1008.42 1008.24 1008.07 1007.89 1007.68 1007.43 1007.16 1006.88 1006.60 1006.35 1006.15 1006.02 1005.97 1006.01 1006.13 1006.33 1006.59 1006.89 1007.22 1007.56 1007.90 1008.23 1008.57 1008.90 1009.25 1009.62 1010.02 1010.45 1010.92 1011.40 1011.89 1012.38
1014.33 1013.76 1013.09 1012.36 1011.60 1010.85 1010.14 1009.50 1008.95 1008.49 1008.12 1007.82 1007.58 1007.37 1007.18 1006.98 1006.77 1006.56 1006.34 1006.12 1005.93 1005.77 1005.67 1005.62 1005.64 1005.72 1005.87 1006.07 1006.31 1006.58 1006.87 1007.18 1007.50 1007.83 1008.18 1008.54 1008.94 1009.36 1009.80 1010.26 1010.74 1011.22 1011.69
1014.63 1014.07 1013.41 1012.67 1011.87 1011.07 1010.28 1009.55 1008.88 1008.30 1007.80 1007.39 1007.05 1006.76 1006.51 1006.30 1006.10 1005.91 1005.74 1005.59 1005.46 1005.36 1005.29 1005.27 1005.30 1005.37 1005.48 1005.64 1005.83 1006.06 1006.31 1006.59 1006.90 1007.23 1007.59 1007.97 1008.38 1008.81 1009.26 1009.72 1010.19 1010.65 1011.10
1014.96 1014.45 1013.82 1013.09 1012.30 1011.47 1010.63 1009.81 1009.04 1008.33 1007.70 1007.15 1006.68 1006.28 1005.95 1005.67 1005.44 1005.26 1005.11 1005.00 1004.93 1004.88 1004.87 1004.89 1004.94 1005.02 1005.12 1005.26 1005.42 1005.62 1005.85 1006.11 1006.41 1006.74 1007.10 1007.49 1007.91 1008.34 1008.79 1009.24 1009.68 1010.11 1010.53
1015.26 1014.80 1014.23 1013.55 1012.79 1011.97 1011.11 1010.24 1009.38 1008.57 1007.80 1007.11 1006.49 1005.96 1005.50 1005.13 1004.84 1004.63 1004.48 1004.38 1004.35 1004.35 1004.38 1004.44 1004.52 1004.62 1004.73 1004.86 1005.02 1005.19 1005.41 1005.65 1005.94 1006.26 1006.62 1007.01 1007.42 1007.85 1008.27 1008.70 1009.11 1009.50 1009.88
1015.44 1015.05 1014.55 1013.95 1013.26 1012.47 1011.63 1010.74 1009.84 1008.94 1008.06 1007.23 1006.47 1005.79 1005.20 1004.72 1004.34 1004.06 1003.87 1003.77 1003.75 1003.77 1003.84 1003.94 1004.04 1004.16 1004.28 1004.42 1004.56 1004.73 1004.92 1005.15 1005.42 1005.73 1006.07 1006.44 1006.83 1007.23 1007.63 1008.01 1008.38 1008.73 1009.06
1015.43 1015.12 1014.71 1014.20 1013.59 1012.88 1012.09 1011.23 1010.31 1009.37 1008.41 1007.48 1006.59 1005.78 1005.07 1004.46 1003.98 1003.62 1003.38 1003.24 1003.20 1003.24 1003.32 1003.43 1003.55 1003.68 1003.81 1003.94 1004.07 1004.22 1004.39 1004.59 1004.83 1005.11 1005.41 1005.75 1006.10 1006.45 1006.80 1007.14 1007.46 1007.77 1008.07
1015.21 1014.97 1014.65 1014.24 1013.74 1013.13 1012.43 1011.62 1010.74 1009.80 1008.81 1007.82 1006.85 1005.94 1005.12 1004.42 1003.84 1003.40 1003.09 1002.91 1002.85 1002.86 1002.94 1003.05 1003.17 1003.30 1003.42 1003.53 1003.63 1003.75 1003.88 1004.04 1004.23 1004.45 1004.70 1004.98 1005.27 1005.57 1005.86 1006.15 1006.42 1006.70 1006.98
1014.80 1014.62 1014.38 1014.07 1013.68 1013.20 1012.60 1011.90 1011.09 1010.19 1009.23 1008.24 1007.24 1006.28 1005.40 1004.63 1003.98 1003.48 1003.13 1002.91 1002.81 1002.80 1002.86 1002.96 1003.06 1003.17 1003.26 1003.34 1003.40 1003.47 1003.54 1003.63 1003.75 1003.90 1004.08 1004.28 1004.50 1004.72 1004.96 1005.19 1005.43 1005.68 1005.96
1014.27 1014.12 1013.95 1013.74 1013.46 1013.10 1012.63 1012.05 1011.36 1010.56 1009.67 1008.73 1007.76 1006.82 1005.93 1005.15 1004.48 1003.96 1003.58 1003.34 1003.22 1003.19 1003.23 1003.31 1003.39 1003.46 1003.51 1003.54 1003.54 1003.53 1003.53 1003.53 1003.56 1003.62 1003.71 1003.82 1003.96 1004.11 1004.28 1004.47 1004.68 1004.92 1005.20
1013.69 1013.57 1013.45 1013.31 1013.14 1012.90 1012.56 1012.12 1011.57 1010.90 1010.13 1009.29 1008.42 1007.55 1006.72 1005.98 1005.35 1004.85 1004.48 1004.25 1004.14 1004.11 1004.13 1004.19 1004.24 1004.27 1004.27 1004.23 1004.16 1004.07 1003.97 1003.88 1003.81 1003.76 1003.75 1003.77 1003.83 1003.91 1004.02 1004.17 1004.35 1004.59 1004.89
1013.16 1013.04 1012.95 1012.88 1012.79 1012.65 1012.45 1012.15 1011.75 1011.23 1010.62 1009.93 1009.19 1008.44 1007.73 1007.09 1006.54 1006.11 1005.80 1005.61 1005.52 1005.51 1005.54 1005.58 1005.60 1005.60 1005.54 1005.44 1005.29 1005.11 1004.92 1004.73 1004.55 1004.41 1004.30 1004.23 1004.21 1004.22 1004.29 1004.40 1004.56 1004.80 1005.11
1012.74 1012.61 1012.54 1012.50 1012.47 1012.43 1012.34 1012.17 1011.92 1011.56 1011.12 1010.59 1010.02 1009.43 1008.87 1008.36 1007.94 1007.62 1007.40 1007.28 1007.25 1007.27 1007.31 1007.35 1007.36 1007.32 1007.22 1007.06 1006.84 1006.58 1006.30 1006.02 1005.75 1005.51 1005.32 1005.18 1005.08 1005.05 1005.07 1005.15 1005.30 1005.53 1005.84
1012.48 1012.33 1012.25 1012.23 1012.24 1012.26 1012.26 1012.20 1012.08 1011.87 1011.59 1011.23 1010.83 1010.42 1010.02 1009.68 1009.40 1009.20 1009.09 1009.06 1009.10 1009.16 1009.24 1009.29 1009.30 1009.24 1009.11 1008.90 1008.62 1008.30 1007.95 1007.60 1007.26 1006.95 1006.69 1006.49 1006.35 1006.27 1006.26 1006.31 1006.44 1006.65 1006.95
1012.38 1012.20 1012.10 1012.08 1012.11 1012.16 1012.22 1012.24 1012.22 1012.13 1011.98 1011.78 1011.54 1011.29 1011.06 1010.86 1010.72 1010.65 1010.65 1010.71 1010.82 1010.94 1011.06 1011.13 1011.15 1011.08 1010.93 1010.70 1010.40 1010.04 1009.65 1009.26 1008.88 1008.53 1008.23 1007.99 1007.81 1007.70 1007.67 1007.70 1007.80 1007.98 1008.25
1012.41 1012.20 1012.07 1012.03 1012.05 1012.11 1012.19 1012.27 1012.31 1012.31 1012.27 1012.18 1012.07 1011.96 1011.86 1011.79 1011.77 1011.81 1011.91 1012.05 1012.22 1012.39 1012.55 1012.65 1012.68 1012.63 1012.49 1012.26 1011.95 1011.59 1011.19 1010.78 1010.39 1010.03 1009.71 1009.46 1009.26 1009.14 1009.08 1009.09 1009.17 1009.31 1009.53
1012.52 1012.28 1012.12 1012.05 1012.05 1012.10 1012.18 1012.27 1012.35 1012.40 1012.43 1012.42 1012.41 1012.39 1012.38 1012.41 1012.48 1012.60 1012.77 1012.97 1013.19 1013.40 1013.59 1013.72 1013.78 1013.75 1013.63 1013.43 1013.15 1012.81 1012.43 1012.04 1011.66 1011.31 1011.00 1010.75 1010.55 1010.42 1010.34 1010.33 1010.38 1010.48 1010.64
1012.65 1012.38 1012.20 1012.10 1012.07 1012.10 1012.16 1012.25 1012.33 1012.41 1012.47 1012.52 1012.56 1012.60 1012.66 1012.74 1012.87 1013.03 1013.24 1013.48 1013.72 1013.96 1014.17 1014.33 1014.42 1014.43 1014.36 1014.20 1013.96 1013.67 1013.34 1013.00 1012.65 1012.33 1012.04 1011.80 1011.61 1011.47 1011.39 1011.35 1011.36 1011.42 1011.53
Thickness
5756 5754 5753 5750 5748 5746 5745 5744 5742 5741 5740 5738 5737 5736 5734 5733 5732 5729 5727 5726 5724 5723 5722 5720 5718 5718 5717 5718 5717 5715 5713 5710 5703 5706 5709 5710 5708 5706 5704 5703 5701 5700 5699
5753 5750 5748 5746 5744 5742 5741 5740 5740 5738 5736 5735 5734 5733 5732 5730 5728 5726 5724 5723 5721 5720 5719 5717 5716 5715 5714 5713 5711 5710 5709 5708 5704 5701 5702 5703 5703 5703 5701 5700 5699 5698 5697
5748 5745 5742 5741 5740 5738 5737 5737 5736 5735 5733 5732 5731 5729 5727 5726 5725 5723 5722 5720 5719 5718 5716 5714 5712 5711 5709 5708 5707 5706 5705 5705 5703 5700 5698 5699 5698 5698 5696 5696 5696 5695 5695
5742 5739 5737 5736 5735 5734 5733 5732 5731 5731 5729 5728 5727 5726 5724 5723 5722 5720 5720 5718 5717 5715 5714 5712 5710 5707 5705 5704 5703 5701 5700 5699 5698 5696 5694 5693 5692 5693 5691 5689 5688 5689 5690
5734 5732 5731 5732 5731 5729 5728 5727 5726 5726 5725 5725 5723 5722 5721 5719 5717 5716 5715 5715 5712 5711 5709 5707 5706 5704 5702 5700 5699 5696 5695 5693 5691 5689 5688 5686 5685 5684 5683 5684 5682 5683 5684
5727 5727 5726 5726 5724 5723 5722 5721 5720 5719 5719 5718 5717 5716 5714 5713 5712 5711 5710 5710 5708 5705 5704 5703 5701 5699 5697 5695 5693 5692 5690 5688 5685 5682 5681 5679 5679 5679 5679 5678 5675 5673 5673
5721 5721 5721 5720 5718 5717 5717 5714 5713 5712 5711 5711 5710 5709 5707 5706 5704 5704 5704 5704 5702 5700 5699 5698 5697 5695 5693 5690 5688 5686 5684 5683 5681 5679 5675 5674 5673 5673 5672 5670 5669 5668 5667
5713 5713 5714 5712 5711 5710 5709 5707 5706 5705 5704 5704 5703 5703 5701 5699 5697 5697 5696 5697 5696 5694 5693 5692 5689 5687 5686 5683 5682 5679 5678 5677 5676 5674 5672 5670 5669 5668 5667 5665 5664 5663 5665
5705 5705 5705 5705 5703 5702 5700 5699 5698 5698 5698 5697 5696 5695 5694 5692 5691 5690 5689 5690 5688 5687 5687 5685 5683 5680 5677 5675 5673 5671 5669 5669 5669 5668 5667 5665 5664 5663 5661 5659 5656 5654 5653
5698 5698 5699 5698 5696 5694 5693 5692 5692 5691 5691 5691 5690 5688 5688 5687 5685 5684 5683 5683 5682 5681 5679 5677 5675 5673 5670 5667 5665 5663 5661 5662 5662 5661 5660 5659 5658 5657 5655 5652 5650 5647 5645
5693 5692 5692 5691 5689 5688 5686 5685 5684 5684 5684 5684 5682 5682 5682 5682 5679 5678 5677 5676 5675 5673 5672 5670 5668 5665 5663 5660 5658 5657 5655 5654 5654 5654 5653 5653 5653 5652 5650 5648 5646 5643 5639
5685 5684 5683 5682 5682 5682 5679 5677 5677 5677 5675 5675 5674 5674 5674 5674 5673 5671 5669 5668 5667 5666 5664 5663 5661 5658 5656 5654 5651 5651 5649 5648 5648 5648 5647 5647 5646 5645 5645 5643 5641 5639 5637
5675 5674 5674 5674 5674 5674 5672 5670 5670 5669 5668 5668 5667 5666 5666 5666 5664 5663 5661 5660 5659 5658 5657 5655 5653 5651 5649 5647 5645 5643 5642 5641 5641 5640 5640 5640 5641 5641 5640 5638 5636 5634 5632
5666 5666 5666 5666 5666 5666 5665 5664 5662 5662 5661 5662 5661 5660 5659 5659 5657 5655 5654 5652 5651 5650 5649 5648 5646 5644 5642 5640 5639 5638 5636 5635 5635 5634 5634 5634 5635 5634 5632 5631 5628 5626 5623
5658 5658 5659 5659 5658 5656 5655 5654 5654 5653 5654 5653 5653 5652 5651 5649 5648 5647 5647 5646 5645 5643 5641 5640 5639 5638 5637 5636 5635 5634 5631 5629 5628 5627 5627 5626 5626 5626 5625 5624 5622 5619 5616
5650 5650 5651 5651 5651 5649 5648 5647 5646 5646 5645 5645 5644 5644 5643 5642 5640 5639 5637 5637 5636 5634 5633 5634 5633 5633 5632 5631 5629 5627 5626 5624 5623 5621 5620 5618 5617 5616 5616 5615 5613 5610 5608
5644 5643 5644 5644 5644 5643 5642 5641 5638 5637 5636 5636 5636 5636 5635 5634 5633 5631 5629 5628 5627 5626 5626 5628 5627 5627 5626 5625 5623 5621 5620 5617 5615 5614 5612 5611 5610 5609 5607 5606 5604 5602 5601
5640 5639 5638 5638 5639 5638 5638 5636 5635 5633 5631 5630 5628 5627 5626 5626 5625 5623 5621 5620 5621 5620 5621 5621 5620 5620 5619 5618 5616 5614 5612 5610 5607 5606 5604 5603 5602 5600 5599 5597 5596 5594 5593
5634 5634 5634 5634 5634 5634 5632 5631 5630 5628 5626 5625 5624 5621 5619 5617 5616 5615 5613 5614 5615 5616 5615 5614 5613 5612 5612 5610 5609 5607 5604 5602 5600 5599 5597 5595 5594 5592 5590 5589 5587 5586 5585
5627 5627 5627 5627 5627 5627 5626 5624 5623 5621 5619 5618 5617 5616 5614 5612 5610 5608 5607 5608 5609 5609 5608 5607 5607 5606 5605 5603 5601 5599 5596 5594 5592 5591 5589 5587 5585 5584 5582 5581 5580 5579 5577
5622 5622 5620 5620 5620 5619 5618 5617 5615 5613 5612 5611 5611 5611 5608 5608 5606 5605 5604 5602 5601 5601 5601 5601 5600 5599 5597 5595 5593 5591 5588 5586 5584 5582 5580 5579 5577 5575 5574 5573 5572 5571 5569
5616 5616 5615 5613 5612 5611 5610 5609 5608 5607 5604 5603 5603 5603 5601 5601 5601 5599 5598 5596 5595 5594 5594 5593 5592 5591 5589 5587 5585 5583 5580 5577 5575 5573 5572 5570 5569 5568 5567 5565 5564 5563 5561
5609 5609 5608 5607 5606 5604 5603 5603 5601 5600 5598 5597 5598 5597 5594 5594 5593 5591 5590 5589 5588 5587 5586 5584 5583 5582 5581 5579 5577 5574 5572 5569 5567 5565 5564 5563 5562 5560 5559 5557 5556 5555 5553
5602 5601 5601 5600 5599 5598 5597 5596 5594 5593 5591 5590 5591 5590 5588 5586 5584 5583 5582 5581 5580 5578 5577 5575 5574 5572 5571 5569 5567 5565 5563 5561 5560 5558 5556 5555 5554 5553 5552 5550 5549 5548 5546
5596 5595 5594 5593 5592 5591 5590 5589 5588 5587 5585 5585 5584 5582 5581 5579 5577 5575 5574 5572 5571 5569 5568 5566 5565 5563 5561 5560 5558 5556 5554 5553 5551 5549 5548 5547 5546 5545 5544 5543 5542 5541 5540
5589 5589 5588 5587 5586 5585 5583 5582 5581 5580 5580 5579 5577 5575 5573 5572 5570 5567 5565 5564 5563 5561 5560 5558 5556 5555 5554 5552 5549 5547 5546 5544 5543 5541 5540 5539 5538 5538 5537 5536 5535 5533 5533